If you wish to contribute or participate in the discussions about articles you are invited to join SKYbrary as a registered user

 Actions

Amami

From SKYbrary Wiki

RJKA
Airport
ICAO: RJKA – IATA: ASJ
Summary
Name Amami
Region Asia and Pacific
Territory Japan JP.gif
Location Amami, Kagoshima Prefecture
Serving Amami
Elevation 26.822 m
88 ft26.822 m
Coordinates 28° 25' 52.17" N, 129° 42' 43.61" E
Runways
Designator Length Width Surface ROPS
3/21 1999 m6,558.399 ft
46 m150.919 ft
ASP yes/yes


METAR
Observation RJKA 140100Z 35011KT 9999 FEW040 BKN060 18/07 Q1028
Station Amami Airport
Date/Time 14 December 2018 01:00:00
Wind direction 350°
Wind speed 11 kts
Lowest cloud amount few clouds
Temperature 18°C
Dew point 7°C
Humidity 48%
QNH 1028 hPa
Weather condition n/a

WX
Tag(s) Tropical Revolving Storm

Amami Airport is an airport located 21.9 km11.825 nm
21,900 m
71,850.394 ft
east northeast Amami, a city on Amami Ōshima (Amami Island) in the Kagoshima Prefecture of Japan. It was previously named Amami Oshima Airport.

Climatology

Humid Sub-tropical climate (Köppen climate classification Cwa) - Hot humid summers and cooler winter. Significant precipitation in all seasons but drier in the winter.

Occasional Typhoons coming from South China Sea.

Maps

Terrain

Loading map...

Airport Layout

Loading map...


Accidents & Serious Incidents at or in vicinity of RJKA

None on SKYbrary